Regional Weather Roundup
Issued by NWS

Home | Current Version | Previous Version | Graphics & Text | Print | Product List | Glossary On
Versions: 1 2 3 4 5 6 7 8 9 10 11 12 13 14 15 16 17 18 19 20 21 22 23 24 25 26 27 28 29 30 31 32 33 34 35 36 37 38 39 40 41 42 43 44 45 46 47 48 49 50
126
ASUS45 KBOI 161310
RWRID

IDAHO REGIONAL WEATHER ROUNDUP
NATIONAL WEATHER SERVICE BOISE ID
600 AM MST MON JAN 16 2017

NOTE: "FAIR" INDICATES FEW OR NO CLOUDS BELOW 12000 FEET
WITH NO SIGNIFICANT WEATHER AND/OR OBSTRUCTIONS TO VISIBILITY

IDZ012-014-161400-
SOUTHWEST IDAHO


CITY           SKY/WX    TMP DP  RH WIND       PRES   REMARKS
BOISE          PTCLDY     2  -1  88 SE5       30.43F FOG     WCI  -8
CALDWELL       LGT SNOW  -5  -8  87 N3        30.50S FOG
MOUNTAIN HOME  DRIZZLE    1   1 100 E6        30.43S FOG     WCI -10
$$

IDZ016-017-161400-
SOUTHCENTRAL IDAHO


CITY           SKY/WX    TMP DP  RH WIND       PRES   REMARKS
BURLEY         CLOUDY    10   7  87 CALM      30.32R FOG
JEROME         PTCLDY     0  -3  87 E8        30.34S WCI -14
TWIN FALLS     FOG        9   7  92 CALM      30.33S VSB 3/4
$$

IDZ019>023-161400-
SOUTHEAST IDAHO


CITY           SKY/WX    TMP DP  RH WIND       PRES   REMARKS
IDAHO FALLS    FOG        0  -2  91 VRB3      30.33R VSB 1/4
POCATELLO      LGT SNOW   5   2  87 NE3       30.33S FOG
REXBURG        CLOUDY    -8 -12  83 CALM      30.31R
$$

IDZ006-010-011-018-031-032-161400-
CENTRAL IDAHO MOUNTAINS


CITY           SKY/WX    TMP DP  RH WIND       PRES   REMARKS
MCCALL         CLOUDY    -8 -14  74 CALM      30.23F HAZE
HAILEY         PTCLDY    -4  -6  92 SE6       30.25R WCI -16
STANLEY          N/A    -23 -27  82 CALM      30.29R
SALMON         CLOUDY   -26 -26 100 CALM      30.52R
CHALLIS        PTCLDY   -24 -28  81 CALM      30.40R
$$

IDZ002-004-006-007-026-161400-
NORTHERN IDAHO


CITY           SKY/WX    TMP DP  RH WIND       PRES   REMARKS
LEWISTON       CLOUDY    10   8  92 E5        30.48S FOG     WCI   2
LOWELL           N/A      7   3  84 CALM      30.51F
COEUR D`ALENE  FOG       10   9  92 CALM      30.39R VSB 1
MULLAN PASS    CLEAR     19  14  81 S6        30.15F WCI  11
$$




USA.gov is the U.S. government's official web portal to all federal, state and local government web resources and services.